ROMMA est une association bénévole à but non lucratif. Votre soutien est indispensable : ADHERER à ROMMA ou FAIRE un DON

Chélieu - (38, Isère)

Terres Froides (550 m)   Longitude: 5° 28' 48.00" E   Latitude: 45° 31' 02.39"N Station partenaire n°44
 

Détail journalier du     <<     >>

Température Precipitation Humidité Pression Vent Dir Rafale Dir. rafale
Heure (°C) (mm) (%) (hPa) (km/h) (km/h)
01:00 8.608310199N19NNE
02:00 7.808310199N23N
03:00 6.708410198N15N
04:00 6.708210186N13N
05:00 5.908110185NNE13NNE
06:00 4.508710186NNO11NNO
07:00 4.609210187NO15NO
08:00 4.4094101810NO16NNO
09:00 5.1094101910NO16NO
10:00 6.309210199NO16NO
11:00 8.608610197NO13NNO
12:00 9.608210198NO18NNO
13:00 10.9075101910NNO19N
14:00 12.0073101910NNO19NNO
15:00 13.1064101810N18N
16:00 13.406410188N19NNE
17:00 13.406410178NNO16NNO
18:00 12.207110189N18N
19:00 11.1074101812NNO18NNO
20:00 10.407410189NNO18NNO
21:00 9.207610187NO15NO
22:00 7.808010182NO10NNO
23:00 5.908410181ONO5NO
minuit 6.0084101806ONO

Graphique du 03-10-2019

 

Serveur OMMA